Stations météo

réclame
Mon MeteoGroup
La Roche-Sur-Yon, France (7306): Température de l'air & dewpoint: 14.08.2018 22:00:00 - 20.08.2018 22:00:00 (CEST)La Roche-Sur-Yon, France (7306): Température de l'air 5cm: 14.08.2018 22:00:00 - 20.08.2018 22:00:00 (CEST)La Roche-Sur-Yon, France (7306): Température de l'air -20cm & Température de l'air -100cm: 14.08.2018 22:00:00 - 20.08.2018 22:00:00 (CEST)La Roche-Sur-Yon, France (7306): Vitesse du vent & gusts: 14.08.2018 22:00:00 - 20.08.2018 22:00:00 (CEST)La Roche-Sur-Yon, France (7306): Direction du vent: 14.08.2018 22:00:00 - 20.08.2018 22:00:00 (CEST)La Roche-Sur-Yon, France (7306): reduced air pressure: 14.08.2018 22:00:00 - 20.08.2018 22:00:00 (CEST)La Roche-Sur-Yon, France (7306): visibility: 14.08.2018 22:00:00 - 20.08.2018 22:00:00 (CEST)La Roche-Sur-Yon, France (7306): Ensoleillement: 14.08.2018 22:00:00 - 20.08.2018 22:00:00 (CEST)La Roche-Sur-Yon, France (7306): Quantités de précipitations: 14.08.2018 22:00:00 - 20.08.2018 22:00:00 (CEST)
Date & Time tt [°C] td [°C] tt 5cm [°C] tt -20cm [°C] tt -100cm [°C] ff [km/h] ff [knt] fx [km/h] fx [knt] dd ppp [hPa] vv [km] sd [min] rr [mm]
20.08.2018 22:00:00 - - - - - - - - - - - - - -
20.08.2018 21:00:00 22,8 17,5 22,0 22,6 20,1 11 6 26 14 NW 1021,0 60 15 0,0
20.08.2018 20:00:00 25,3 18,0 27,0 22,6 20,1 19 10 24 13 WNW 1020,8 60 46 0,0
20.08.2018 19:00:00 25,5 17,7 26,9 22,4 20,1 11 6 19 11 WNW 1020,9 60 0 0,0
20.08.2018 18:00:00 25,7 18,1 27,2 22,3 20,1 11 6 22 12 NW 1021,3 60 0 0,0
20.08.2018 17:00:00 25,8 18,2 27,0 22,2 20,1 13 7 21 12 W 1021,7 60 0 0,0
20.08.2018 16:00:00 25,5 17,7 27,2 22,0 20,1 12 7 19 11 NW 1022,2 60 0 0,0
20.08.2018 15:00:00 25,9 16,7 27,3 21,8 20,1 10 6 19 11 NNW 1022,4 60 15 0,0
20.08.2018 14:00:00 26,8 17,6 29,7 21,7 20,1 9 5 20 11 NNW 1022,6 60 29 0,0
20.08.2018 13:00:00 24,1 18,5 27,7 21,6 20,1 4 2 14 8 N 1023,0 60 0 0,0
20.08.2018 12:00:00 22,9 18,9 24,6 21,6 20,1 9 5 14 8 NNE 1023,4 56 0 0,0
20.08.2018 11:00:00 20,4 18,7 20,4 21,6 20,1 4 2 8 4 NE 1023,4 38 0 0,0
20.08.2018 10:00:00 18,2 18,0 18,7 21,7 20,1 3 2 6 3 NE 1023,4 17 0 0,0
20.08.2018 09:00:00 17,5 17,3 17,2 21,7 20,0 3 2 5 3 N 1023,5 14 0 0,0
20.08.2018 08:00:00 16,6 16,4 15,0 21,8 20,1 5 3 8 4 N 1023,2 10 0 0,0
20.08.2018 07:00:00 15,6 15,4 15,0 21,9 20,1 5 3 7 4 NNE 1022,6 0,2 0 0,0
20.08.2018 06:00:00 16,5 16,3 16,0 22,0 20,1 2 1 7 4 N 1022,2 0,1 0 0,0
20.08.2018 05:00:00 16,7 16,5 16,3 22,1 20,1 4 2 11 6 N 1022,5 0,1 0 0,0
20.08.2018 04:00:00 17,2 17,0 17,0 22,2 20,1 8 4 14 8 N 1022,9 0,3 0 0,0
20.08.2018 03:00:00 17,3 17,1 17,1 22,3 20,1 10 5 15 8 NNW 1023,1 0,3 0 0,0
20.08.2018 02:00:00 17,2 16,9 16,4 22,4 20,1 11 6 16 9 NNW 1023,4 0,7 0 0,0
20.08.2018 01:00:00 16,6 16,1 13,8 22,5 20,1 8 4 10 6 NW 1023,6 3,8 0 0,0
20.08.2018 00:00:00 16,1 15,0 13,3 22,6 20,1 4 2 16 9 WNW 1023,8 17 0 0,0
19.08.2018 23:00:00 17,0 15,2 16,0 22,7 20,1 10 5 19 10 WNW 1023,6 36 0 0,0
19.08.2018 22:00:00 17,6 14,5 16,4 22,7 20,1 11 6 26 14 NW 1023,4 59 0 0,0
19.08.2018 21:00:00 19,3 14,3 18,8 22,7 20,1 18 10 27 15 NW 1023,3 60 45 0,0
19.08.2018 20:00:00 22,2 13,3 23,1 22,6 20,1 19 10 30 16 NW 1022,8 55 60 0,0
19.08.2018 19:00:00 24,2 12,2 26,9 22,4 20,1 21 11 29 16 NW 1022,8 60 60 0,0
19.08.2018 18:00:00 26,1 12,5 30,3 22,1 20,1 17 9 29 16 WNW 1022,9 60 60 0,0
19.08.2018 17:00:00 26,8 9,2 32,6 21,9 20,1 17 9 26 14 W 1022,9 60 60 0,0
19.08.2018 16:00:00 27,0 9,8 33,9 21,6 20,1 13 7 24 13 W 1023,1 60 60 0,0
19.08.2018 15:00:00 26,6 9,9 33,2 21,3 20,1 13 7 25 14 W 1023,6 60 60 0,0
19.08.2018 14:00:00 25,7 11,1 33,1 21,1 20,1 14 8 25 14 WNW 1023,8 60 60 0,0
19.08.2018 13:00:00 25,5 7,1 31,8 21,0 20,1 12 6 20 11 WSW 1024,0 53 60 0,0
19.08.2018 12:00:00 24,4 9,5 30,5 20,9 20,1 8 5 15 8 WNW 1024,1 60 60 0,0
19.08.2018 11:00:00 22,4 12,1 26,9 20,9 20,1 5 3 11 6 SW 1024,5 59 60 0,0
19.08.2018 10:00:00 19,3 14,5 22,7 21,0 20,1 2 1 5 3 WNW 1024,5 60 60 0,0
19.08.2018 09:00:00 16,2 14,2 15,0 21,2 20,1 2 1 5 3 N 1024,3 40 60 0,0
19.08.2018 08:00:00 13,2 13,0 8,2 21,3 20,1 3 1 6 3 NNE 1024,2 8 29 0,2
19.08.2018 07:00:00 12,4 12,1 8,3 21,5 20,1 4 2 8 4 NNE 1024,0 7 0 0,0
19.08.2018 06:00:00 12,0 11,4 8,7 21,6 20,1 3 2 6 3 N 1024,0 2,8 0 0,0
19.08.2018 05:00:00 13,0 12,5 9,0 21,8 20,1 4 2 8 4 NNE 1024,2 10 0 0,0
19.08.2018 04:00:00 12,8 11,9 10,4 21,9 20,1 5 3 11 6 N 1024,5 18 0 0,0
19.08.2018 03:00:00 13,3 12,2 11,3 22,1 20,1 8 5 14 8 N 1024,4 38 0 0,0
19.08.2018 02:00:00 13,8 12,4 12,6 22,3 20,1 8 5 13 7 N 1024,4 45 0 0,0
19.08.2018 01:00:00 14,6 12,8 13,5 22,4 20,1 7 4 15 8 NNW 1024,9 60 0 0,0
19.08.2018 00:00:00 15,1 12,6 13,9 22,5 20,1 8 4 14 8 NW 1024,8 60 0 0,0
18.08.2018 23:00:00 15,9 12,3 14,4 22,5 20,1 8 5 19 11 NW 1024,5 60 0 0,0
18.08.2018 22:00:00 17,4 11,7 16,3 22,6 20,1 11 6 24 13 NW 1024,4 60 0 0,0
18.08.2018 21:00:00 19,6 12,1 18,9 22,5 20,1 16 9 28 15 NW 1023,8 60 47 0,0
18.08.2018 20:00:00 21,7 12,8 22,6 22,4 20,1 21 11 29 16 NW 1023,4 52 60 0,0
18.08.2018 19:00:00 23,9 12,8 26,8 22,2 20,1 22 12 29 16 NW 1023,0 60 60 0,0
18.08.2018 18:00:00 25,4 11,6 32,0 21,9 20,1 13 7 24 13 N 1023,1 60 60 0,0
18.08.2018 17:00:00 25,4 11,2 32,8 21,6 20,1 10 6 23 12 NNW 1023,5 60 60 0,0
18.08.2018 16:00:00 25,8 11,5 32,7 21,3 20,1 5 3 23 13 W 1023,8 60 60 0,0
18.08.2018 15:00:00 24,1 10,4 32,7 21,0 20,1 10 5 24 13 NE 1024,3 60 60 0,0
18.08.2018 14:00:00 23,4 10,8 30,9 20,8 20,1 11 6 26 14 N 1024,9 60 60 0,0
18.08.2018 13:00:00 22,7 10,8 29,3 20,7 20,1 9 5 23 12 NNW 1024,9 60 60 0,0
18.08.2018 12:00:00 21,6 10,7 27,2 20,7 20,1 13 7 19 11 NNW 1025,2 60 60 0,0
18.08.2018 11:00:00 20,3 10,1 24,1 20,7 20,1 9 5 20 11 NNE 1025,4 60 60 0,0
18.08.2018 10:00:00 18,5 10,3 20,1 20,8 20,1 10 5 16 9 ENE 1025,4 60 60 0,0
18.08.2018 09:00:00 15,9 11,7 14,7 20,9 20,1 8 4 13 7 NE 1025,2 56 53 0,0
18.08.2018 08:00:00 12,4 10,6 9,7 21,1 20,1 6 3 11 6 N 1024,9 60 30 0,0
18.08.2018 07:00:00 11,0 9,3 9,0 21,3 20,1 9 5 14 8 NNE 1024,9 60 0 0,0
18.08.2018 06:00:00 10,8 8,9 8,8 21,4 20,1 9 5 11 6 NNE 1024,5 60 0 0,0
18.08.2018 05:00:00 11,0 9,1 9,2 21,6 20,1 10 5 13 7 NNE 1024,8 60 0 0,0
18.08.2018 04:00:00 11,5 9,4 9,2 21,7 20,1 9 5 13 7 NE 1024,8 60 0 0,0
18.08.2018 03:00:00 12,1 9,7 9,5 21,9 20,1 8 5 11 6 NNE 1024,9 60 0 0,0
18.08.2018 02:00:00 12,9 10,8 10,9 22,0 20,1 8 4 14 7 NNE 1025,0 60 0 0,0
18.08.2018 01:00:00 13,9 11,8 12,1 22,2 20,1 8 5 14 8 N 1025,0 60 0 0,0
18.08.2018 00:00:00 14,6 12,3 13,6 22,2 20,1 10 5 16 8 NNW 1024,8 60 0 0,0
17.08.2018 23:00:00 15,6 12,5 14,3 22,4 20,1 10 6 21 12 NW 1024,5 60 0 0,0
17.08.2018 22:00:00 16,9 12,2 15,7 22,4 20,1 15 8 27 14 WNW 1023,9 60 0 0,0
17.08.2018 21:00:00 18,4 11,9 17,6 22,4 20,1 16 9 31 17 WNW 1023,2 60 38 0,0
17.08.2018 20:00:00 21,0 12,4 21,6 22,3 20,1 20 11 31 17 WNW 1022,4 60 42 0,0
17.08.2018 19:00:00 22,4 8,9 23,2 22,2 20,1 14 7 29 15 NW 1022,0 60 23 0,0
17.08.2018 18:00:00 23,6 8,8 24,4 22,0 20,1 16 8 37 20 NNW 1021,9 60 37 0,0
17.08.2018 17:00:00 24,2 9,7 25,3 21,8 20,1 14 8 31 17 NNW 1021,9 60 43 0,0
17.08.2018 16:00:00 23,8 9,8 25,9 21,6 20,1 12 6 33 18 NNE 1022,5 60 46 0,0
17.08.2018 15:00:00 22,6 8,7 25,2 21,4 20,1 15 8 31 17 N 1022,8 60 41 0,0
17.08.2018 14:00:00 21,8 10,6 24,1 21,3 20,1 19 10 32 17 N 1023,0 60 34 0,0
17.08.2018 13:00:00 21,0 10,8 22,1 21,3 20,1 19 11 39 21 NNW 1023,1 60 36 0,0
17.08.2018 12:00:00 20,6 10,7 23,5 21,2 20,1 21 11 35 19 N 1023,1 20 49 0,0
17.08.2018 11:00:00 18,9 12,2 23,1 21,3 20,1 21 11 32 17 N 1022,9 60 60 0,0
17.08.2018 10:00:00 16,7 12,8 18,3 21,4 20,1 16 9 24 13 N 1022,5 60 60 0,0
17.08.2018 09:00:00 13,8 12,7 13,3 21,6 20,1 13 7 22 12 NNW 1022,1 20 60 0,0
17.08.2018 08:00:00 11,8 11,3 10,6 21,7 20,1 9 5 16 9 NW 1021,7 18 31 0,0
17.08.2018 07:00:00 11,5 11,0 9,2 21,9 20,1 11 6 15 8 NW 1021,2 19 0 0,2
17.08.2018 06:00:00 11,7 10,8 10,3 22,1 20,1 8 4 17 9 NNW 1020,8 51 0 0,0
17.08.2018 05:00:00 12,8 11,9 11,8 22,2 20,1 13 7 19 10 NNW 1020,5 46 0 0,0
17.08.2018 04:00:00 13,7 12,3 12,8 22,4 20,1 11 6 21 12 NNW 1020,2 20 0 0,0
17.08.2018 03:00:00 14,5 12,7 13,7 22,5 20,1 12 7 29 16 NNW 1019,7 57 0 0,0
17.08.2018 02:00:00 15,5 12,4 14,8 22,6 20,1 16 9 35 19 N 1019,4 60 0 0,0
17.08.2018 01:00:00 16,7 12,8 16,5 22,7 20,1 19 10 34 18 N 1019,0 60 0 0,0
17.08.2018 00:00:00 17,1 14,7 17,0 22,8 20,1 19 11 38 20 N 1018,4 60 0 0,0
16.08.2018 23:00:00 18,2 15,1 17,8 22,9 20,1 26 14 41 22 N 1017,7 60 0 0,0
16.08.2018 22:00:00 18,5 16,3 17,9 22,9 20,1 16 9 26 14 NW 1017,0 60 0 0,0
16.08.2018 21:00:00 19,5 15,8 19,1 22,9 20,1 21 12 33 18 WNW 1016,1 60 38 0,0
16.08.2018 20:00:00 21,2 15,5 21,7 22,8 20,1 23 12 31 17 WNW 1015,8 54 32 0,0
16.08.2018 19:00:00 22,7 14,8 24,3 22,7 20,1 22 12 37 20 NW 1015,7 44 45 0,0
16.08.2018 18:00:00 24,5 14,3 27,2 22,5 20,1 22 12 35 19 NW 1015,5 34 53 0,0
16.08.2018 17:00:00 25,2 14,9 31,0 22,2 20,1 16 9 34 19 W 1015,6 35 60 0,0
16.08.2018 16:00:00 26,0 15,7 32,2 21,9 20,1 18 10 32 17 W 1015,7 40 60 0,0
16.08.2018 15:00:00 25,3 15,9 30,8 21,7 20,1 16 9 35 19 WNW 1015,8 47 58 0,0
16.08.2018 14:00:00 26,0 16,5 29,1 21,5 20,1 17 9 32 17 WNW 1015,8 54 47 0,0
16.08.2018 13:00:00 26,1 15,8 32,5 21,4 20,1 8 5 17 9 W 1015,7 47 60 0,0
16.08.2018 12:00:00 24,0 14,7 29,3 21,3 20,1 7 4 18 10 WNW 1016,2 58 60 0,0
16.08.2018 11:00:00 22,9 15,5 26,8 21,3 20,0 8 5 16 9 NW 1016,5 57 60 0,0
16.08.2018 10:00:00 20,8 16,2 23,1 21,4 20,1 9 5 15 8 NNW 1016,6 42 60 0,0
16.08.2018 09:00:00 17,3 16,7 15,1 21,6 20,0 3 2 7 4 N 1016,7 19 60 0,0
16.08.2018 08:00:00 14,2 14,0 9,1 21,8 20,1 4 2 9 5 NNW 1017,0 7 32 0,0
16.08.2018 07:00:00 13,6 13,4 8,9 21,9 20,1 4 2 11 6 NE 1016,7 2,5 0 0,0
16.08.2018 06:00:00 13,6 13,4 8,9 22,1 20,0 5 3 9 5 NE 1017,0 0,6 0 0,0
16.08.2018 05:00:00 15,1 14,8 8,9 22,3 20,1 6 3 8 4 ENE 1017,2 0,8 0 0,0
16.08.2018 04:00:00 14,3 13,7 9,5 22,5 20,1 3 2 10 5 NNW 1017,7 1,8 0 0,2
16.08.2018 03:00:00 15,2 14,6 11,0 22,6 20,1 8 4 10 6 N 1018,1 11 0 0,0
16.08.2018 02:00:00 15,3 14,0 11,3 22,8 20,1 6 3 7 4 NNW 1018,7 12 0 0,0
16.08.2018 01:00:00 16,3 15,0 12,1 23,0 20,1 4 2 6 3 NW 1018,9 32 0 0,0
16.08.2018 00:00:00 17,0 14,1 12,8 23,1 20,1 5 3 8 4 NNW 1018,9 60 0 0,0
15.08.2018 23:00:00 18,9 15,4 14,1 23,1 20,1 6 4 11 6 ENE 1019,1 60 0 0,0
15.08.2018 22:00:00 20,4 15,0 16,3 23,2 20,1 8 4 10 6 NE 1019,0 60 0 0,0
15.08.2018 21:00:00 23,3 15,4 21,8 23,1 20,1 6 3 13 7 NNE 1018,6 60 52 0,0
15.08.2018 20:00:00 25,8 15,5 27,6 22,9 20,1 10 5 16 9 NE 1018,5 60 60 0,0
15.08.2018 19:00:00 26,9 15,6 32,5 22,7 20,1 10 6 20 11 N 1018,8 60 60 0,0
15.08.2018 18:00:00 27,4 15,4 33,5 22,4 20,1 8 5 19 10 NE 1019,4 60 60 0,0
15.08.2018 17:00:00 26,9 15,6 32,4 22,1 20,1 10 5 21 11 NNE 1019,8 60 60 0,0
15.08.2018 16:00:00 26,7 15,7 34,4 21,8 20,1 9 5 23 12 NE 1020,3 60 60 0,0
15.08.2018 15:00:00 26,3 15,7 32,2 21,6 20,1 7 4 21 11 NNW 1020,9 60 55 0,0
15.08.2018 14:00:00 25,4 15,4 27,3 21,4 20,1 7 4 25 14 NW 1021,3 60 47 0,0
15.08.2018 13:00:00 23,5 15,3 27,4 21,3 20,1 3 2 19 10 WNW 1021,8 60 12 0,0
15.08.2018 12:00:00 23,4 15,4 26,9 21,2 20,1 4 2 16 9 ENE 1022,1 60 50 0,0
15.08.2018 11:00:00 22,3 15,9 25,2 21,2 20,1 8 5 17 9 NE 1022,5 60 60 0,0
15.08.2018 10:00:00 20,1 16,5 19,5 21,2 20,1 10 6 14 8 E 1022,6 60 60 0,0
15.08.2018 09:00:00 16,7 16,5 16,7 21,2 20,1 0 0 8 5 N 1022,6 3,0 14 0,0
15.08.2018 08:00:00 16,2 16,0 15,9 21,3 20,1 4 2 9 5 E 1022,4 0,3 0 0,0
15.08.2018 07:00:00 16,3 16,1 16,2 21,3 20,1 6 3 10 6 E 1022,0 0,3 0 0,0
15.08.2018 06:00:00 16,8 16,6 16,7 21,4 20,1 6 3 11 6 E 1022,0 0,4 0 0,0
15.08.2018 05:00:00 17,2 17,0 17,1 21,5 20,1 5 3 9 5 NE 1022,2 0,3 0 0,0
15.08.2018 04:00:00 17,0 16,7 16,8 21,5 20,1 3 2 7 4 NE 1022,6 0,2 0 0,0
15.08.2018 03:00:00 17,3 16,8 17,2 21,6 20,1 5 3 9 5 NW 1022,8 1,5 0 0,0
15.08.2018 02:00:00 17,5 17,0 17,3 21,7 20,1 5 3 14 8 WNW 1023,1 12 0 0,0
15.08.2018 01:00:00 17,4 16,9 15,7 21,8 20,1 11 6 16 9 WNW 1023,0 8 0 0,0
15.08.2018 00:00:00 17,1 16,3 15,9 21,8 20,1 6 3 16 8 W 1022,7 34 0 0,0
14.08.2018 23:00:00 17,5 16,0 16,3 21,9 20,1 8 4 16 9 WNW 1022,7 60 0 0,0
14.08.2018 22:00:00 18,2 15,3 16,7 21,9 20,2 9 5 16 9 WNW 1022,2 60 0 0,0

tt = Température de l'air
td = dewpoint
tt 5cm = Température de l'air 5cm
tt -20cm = Température de l'air -20cm
tt -100cm = Température de l'air -100cm
ff = Vitesse du vent
fx = gusts
dd = Direction du vent
ppp = reduced air pressure
vv = visibility
sd = Ensoleillement
rr = Quantités de précipitations

stations d'obs. à proximité